STARLINK-32338, 61519

Orbit data source: Space-Track

STARLINK-32338, 61519 is a payload satellite owned by SpaceX/Seattle (US) in LEO that was launched on Tue, 15 Oct 2024 UTC via an FALCON 9 launch vehicle from the Air Force Eastern Test Range (AFETR). Payload-class satellites include a variety of spacecraft equipped with specific instruments for various scientific and technological missions. These include communications satellites like Starlink; space stations such as the ISS; scientific satellites like the Hubble; Earth observation satellites from companies like Planet Labs, Umbra, and HawkEye 360; GPS; miniature CubeSats for education and research; and military/defense satellites.

Loading next visibility...
Identifier
61519, 2024-183L
Orbit
LEO
Country
Flag of USUS
Related business
Manufacturer
SpaceX/Seattle
Mission
Operational Commercial Communications
Bus & Motor
STARLINK V2M, Unknown motor
Mass
730 kg wet, ~700 kg dry
Launch date (UTC)
2024-10-15 (1 year ago)
Launch vehicle
FALCON 9
Launch site
Air Force Eastern Test Range (AFETR)
Object type
Payload
Rocket body
Debris
Shape & HBR
Box + 2 Pan, 17.7 m
Radar Cross Section
33.884 m², Large (>1 m²)

Expand to show TLE details & history
Last TLE update: 12 hours ago

TLE from 12 hours ago
0 STARLINK-32338
1 61519U 24183L   25346.94449615  .00000522  00000-0  29792-4 0  9994
2 61519  53.1598 185.2021 0001329  96.6534 263.4618 15.30165979 66370
Epoch: 2025-12-12T22:40Z
TLE epoch observation values (Epoch: 2025-12-12T22:40:04.467Z)
Latitude
-0.00002°
Longitude
123.30462°
Altitude
476.32 km
Speed
7.629 km/s
True Right ascension
12h 20m 48s
True Declination
0° 00' 00"
Sunlit
Object was in daylight at epoch
Visualization orbit readout
Latitude
Unknown
Longitude
Unknown
Altitude
Unknown
Speed
Unknown
Apparent Right ascension
Unknown
Apparent Declination
Unknown
Sunlit
N/A
Visualization observer readout
Local Sidereal Time
09:17:54
Azimuth
Unknown
Elevation
Unknown
Doppler factor
Unknown
Orbital elements
Apogee altitude
476.484 km
Perigee altitude
474.662 km
Semi-major axis
6,853.71 km
Eccentricity
0.00013
Inclination
53.1598°
RAAN
185.2021°
Arg. of periapsis
96.6534°
True anomaly
263.44667°
Mean anomaly
263.4618°
Eccentric anomaly
263.45424°
Mean motion
3.8252 °/min
Orbital period
94.11 mins
BSTAR
0.000029792
Loading maneuver chart data...
Computing Atmospheric mass density...
Loading historical data...
Loading historical data...
Loading historical data...
Loading historical data...
Loading historical data...
Loading historical data...
Loading historical data...

Documentation

Showing up to 5 results
|